This demonstration page uses our WeatherBlox Daily Observations layout. Learn more.

Left ArrowRight Arrow

Hourly Observations for July 12, 2016

Temp ( °F °C ) Dew Point ( °F °C ) Humidity (%) Winds ( mph kmh ) Pressure ( in mb ) Visibility ( mi km ) Precip ( " mm )
12:15 am 00:15 Clear 62 16.7 56 13.3 80 80 WNW 6 9 29.77 1008 10 16 N/A
12:35 am 00:35 Clear 60 15.8 55 12.7 82 82 WNW 8 13 29.77 1008 10 16 N/A
12:55 am 00:55 Clear 60 15.7 55 12.6 82 82 NW 7 11 29.77 1008 10 16 N/A
1:15 am 01:15 Clear 58 14.7 54 12 84 84 NW 7 11 29.77 1008 10 16 N/A
1:35 am 01:35 Clear 58 14.3 53 11.5 83 83 NW 6 9 29.80 1009 10 16 N/A
1:55 am 01:55 Clear 59 14.8 53 11.7 82 82 N N/A 29.77 1008 10 16 N/A
2:15 am 02:15 Clear 56 13.5 52 11 85 85 NNW 6 9 29.80 1009 10 16 N/A
2:35 am 02:35 Clear 56 13.5 51 10.5 82 82 NNW 6 9 29.80 1009 10 16 N/A
2:55 am 02:55 Clear 59 14.8 48 8.8 68 68 N N/A 29.83 1010 10 16 N/A
3:15 am 03:15 Clear 60 15.6 46 7.8 60 60 NNE 5 7 29.80 1009 10 16 N/A
3:35 am 03:35 Clear 58 14.2 47 8.5 69 69 N 7 11 29.83 1010 10 16 N/A
3:55 am 03:55 Clear 58 14.5 47 8.5 67 67 N N/A 29.85 1011 10 16 N/A
4:15 am 04:15 Clear 56 13.2 48 9.1 76 76 N N/A 29.85 1011 10 16 N/A
4:35 am 04:35 Clear 55 12.6 47 8.6 77 77 ESE 5 7 29.88 1012 10 16 N/A
4:55 am 04:55 Clear 56 13.3 46 8 71 71 ESE 3 6 29.88 1012 10 16 N/A
5:15 am 05:15 Clear 57 13.7 47 8.2 70 70 E 3 6 29.88 1012 10 16 N/A
5:35 am 05:35 Clear 56 13.5 47 8.6 72 72 N N/A 29.88 1012 10 16 N/A
5:55 am 05:55 Clear 53 11.9 48 8.7 81 81 N N/A 29.91 1013 10 16 N/A
6:15 am 06:15 Clear 52 11.1 49 9.5 90 90 N N/A 29.91 1013 10 16 N/A
6:35 am 06:35 Sunny 53 11.4 49 9.3 87 87 N N/A 29.94 1014 10 16 N/A
6:55 am 06:55 Sunny 53 11.8 50 9.8 88 88 WNW 5 7 29.94 1014 10 16 N/A
7:15 am 07:15 Sunny 55 12.9 51 10.7 87 87 W 3 6 29.91 1013 10 16 N/A
7:35 am 07:35 Sunny 56 13.5 52 11.3 87 87 WNW 3 6 29.91 1013 10 16 N/A
7:55 am 07:55 Sunny 59 15 53 11.6 80 80 N N/A 29.91 1013 10 16 N/A
8:15 am 08:15 Sunny 62 16.8 54 12.2 74 74 N N/A 29.88 1012 10 16 N/A
8:35 am 08:35 Sunny 66 18.7 51 10.6 59 59 ESE 7 11 29.88 1012 10 16 N/A
8:55 am 08:55 Sunny 67 19.3 51 10.7 58 58 E 5 7 29.91 1013 10 16 N/A
9:15 am 09:15 Sunny 68 20 52 11.3 57 57 E 3 6 29.88 1012 10 16 N/A
9:35 am 09:35 Sunny 70 21.2 52 11.1 53 53 ENE 7 11 29.88 1012 10 16 N/A
9:55 am 09:55 Sunny 72 22.3 52 11.3 50 50 ENE 7 11 29.88 1012 10 16 N/A
10:15 am 10:15 Sunny 74 23.1 52 11.1 47 47 E 3 6 29.85 1011 10 16 N/A
10:35 am 10:35 Sunny 76 24.2 52 10.9 43 43 E 3 6 29.85 1011 10 16 N/A
10:55 am 10:55 Sunny 77 24.8 52 11 42 42 SSE 5 7 29.85 1011 10 16 N/A
11:15 am 11:15 Sunny 78 25.5 51 10.5 39 39 SE 8 13 29.85 1011 10 16 N/A
11:35 am 11:35 Sunny 78 25.8 52 11.1 40 40 SE 7 11 29.85 1011 10 16 N/A
11:55 am 11:55 Sunny 78 25.8 51 10.8 39 39 ESE 6 9 29.85 1011 10 16 N/A
12:15 pm 12:15 Sunny 80 26.6 50 9.9 35 35 SSE 8 13 29.83 1010 10 16 N/A
12:35 pm 12:35 Sunny 81 27.2 51 10.7 36 36 ESE 8 13 29.83 1010 10 16 N/A
12:55 pm 12:55 Sunny 82 27.6 48 8.9 31 31 SE 8 13 29.80 1009 10 16 N/A
1:15 pm 13:15 Sunny 82 27.6 50 10.2 34 34 SSE 7 11 29.80 1009 10 16 N/A
1:35 pm 13:35 Sunny 82 27.7 50 10 33 33 S 6 9 29.80 1009 10 16 N/A
1:55 pm 13:55 Sunny 83 28.1 50 10 32 32 S 3 6 29.80 1009 10 16 N/A
2:15 pm 14:15 Sunny 83 28.4 52 11.2 34 34 SSW 5 7 29.77 1008 10 16 N/A
2:35 pm 14:35 Sunny 83 28.6 51 10.8 33 33 SE 5 7 29.77 1008 10 16 N/A
2:55 pm 14:55 Sunny 85 29.6 51 10.7 31 31 SE 7 11 29.77 1008 10 16 N/A
3:15 pm 15:15 Sunny 85 29.3 53 11.4 33 33 SE 7 11 29.77 1008 10 16 N/A
3:35 pm 15:35 Sunny 86 30.2 53 11.6 32 32 SE 8 13 29.74 1007 10 16 N/A
3:55 pm 15:55 Sunny 86 30 53 11.8 33 33 SE 7 11 29.74 1007 10 16 N/A
4:15 pm 16:15 Sunny 86 30.1 53 11.6 32 32 SE 5 7 29.74 1007 10 16 N/A
4:35 pm 16:35 Sunny 86 30.1 54 12.3 33 33 S 6 9 29.71 1006 10 16 N/A
4:55 pm 16:55 Sunny 87 30.4 55 12.9 34 34 SSE 5 7 29.71 1006 10 16 N/A
5:15 pm 17:15 Sunny 87 30.4 55 12.9 34 34 SE 6 9 29.71 1006 10 16 N/A
5:35 pm 17:35 Sunny 87 30.7 56 13.2 34 34 S 9 15 29.71 1006 10 16 N/A
5:55 pm 17:55 Sunny 87 30.6 54 12.4 33 33 SSE 9 15 29.68 1005 10 16 N/A
6:15 pm 18:15 Sunny 87 30.5 56 13.5 35 35 S 7 11 29.68 1005 10 16 N/A
6:35 pm 18:35 Sunny 86 30 57 13.9 37 37 SSE 9 15 29.68 1005 10 16 N/A
6:55 pm 18:55 Sunny 85 29.7 58 14.4 39 39 SSE 8 13 29.68 1005 10 16 N/A
7:15 pm 19:15 Sunny 85 29.4 59 15 42 42 SSE 7 11 29.68 1005 10 16 N/A
7:35 pm 19:35 Sunny 84 28.9 61 16.1 46 46 SSE 7 11 29.71 1006 10 16 N/A
7:55 pm 19:55 Sunny 83 28.2 62 16.4 49 49 SSE 7 11 29.71 1006 10 16 N/A
8:15 pm 20:15 Sunny 82 27.7 61 15.9 49 49 SE 6 9 29.71 1006 10 16 N/A
8:35 pm 20:35 Sunny 80 26.8 62 16.6 54 54 SE 6 9 29.71 1006 10 16 N/A
8:55 pm 20:55 Sunny 79 26 62 16.5 56 56 SE 6 9 29.71 1006 10 16 N/A
9:15 pm 21:15 Clear 77 25.1 62 16.8 60 60 SE 7 11 29.74 1007 10 16 N/A
9:35 pm 21:35 Clear 74 23.6 63 17.2 67 67 ESE 6 9 29.74 1007 10 16 N/A
9:55 pm 21:55 Clear 77 24.9 64 17.5 64 64 SE 8 13 29.74 1007 10 16 N/A
10:15 pm 22:15 Clear 76 24.3 64 18 68 68 SE 10 17 29.74 1007 10 16 N/A
10:35 pm 22:35 Clear 74 23.5 65 18.2 72 72 SSE 8 13 29.77 1008 10 16 N/A
10:55 pm 22:55 Clear 73 23 65 18.5 76 76 SSE 8 13 29.77 1008 10 16 N/A
11:15 pm 23:15 Clear 73 22.5 66 18.7 79 79 SSE 7 11 29.77 1008 10 16 N/A
11:35 pm 23:35 Clear 72 22.3 66 18.8 81 81 SSE 9 15 29.77 1008 10 16 N/A
11:55 pm 23:55 Clear 72 22.2 65 18.6 80 80 SSE 8 13 29.77 1008 10 16 N/A

Powered by AerisWeather